www.pogodaiklimat.ru

Погода и климат >> Архив погоды >> Россия >> Чукотка >> Айон Остров


ПОГОДА на Айон Острове

  • Прогноз погоды на Айон Острове
  • Монитор погоды на Айон Острове
  • Климат города

АРХИВ ПОГОДЫ на Айон Острове

Время (UTC), дата Ветер
(напр.,м/с)
 
Видим.   Явления Облачность Т
(С)
Тd
(С)
f
(%)
Тe
(С)
Тes
(С)
Комфортность P
(гПа)
Po
(гПа)
Тmin
(С)
Tmax
(С)
R
(мм)
R24
(мм)
S
(см)
00 11.11 В 4-5
{6}
20 км 10/0
[Ac und]
-13.8 -15.5 87 -21 -21 1012.5 1010.7
03 11.11 В 6-8
{9}
4000 м слабый снег {метель} 10/0
[As op]
-11.6 -12.9 90 -20 -20 1008.2 1006.4
06 11.11 В 3-4
{9}
4000 м слабый снег {метель} 10/0
[As op]
-9.9 -11.1 91 -16 -16 1005.3 1003.5
09 11.11 СВ 2-3
{5}
20 км {снег} 10/0
[As op]
-8.8 -10.3 89 -13 -13 1003.5 1001.7 -8.8 0.7
12 11.11 СВ 1-2
{4}
4000 м слабый снег 10/0
[As op]
-8.4 -9.4 92 -11 -11 1002.2 1000.4
15 11.11 СЗ 4-5
{5}
4000 м слабый снег 10/0
[As op]
-8.2 -9.2 92 -15 -15 1002.2 1000.4
18 11.11 З 7-8
{9}
20 км позёмок {снег, метель} 10/0
[As trans]
-10.2 -11.5 90 -19 -19 1003.1 1001.3
21 11.11 З 12-15
{16}
20 км позёмок {метель} 9/0
[Ac trans Ci fib]
-11.7 -13.0 90 -24 -24 1005.0 1003.2 -11.8 0.7 3
00 12.11 З 15-19
{19}
4000 м метель 10/0
[Ac trans Ci fib]
-10.6 -11.9 90 -23 -23 1007.9 1006.1
03 12.11 З 18-24
{26}
1000 м метель 10/0
[As trans]
-11.4 -12.7 90 -25 -25 1012.6 1010.8
06 12.11 З 14-18
{24}
1000 м метель 10/0
[Ac trans Ci fib]
-13.3 -14.6 90 -26 -26 1018.1 1016.2
09 12.11 З 15-18
{19}
2000 м метель 10/0
[As trans]
-12.9 -14.6 87 -26 -26 1022.2 1020.3 -10.5
12 12.11 З 11-15
{19}
20 км позёмок {метель} 4/0
[Ac trans]
-13.7 -15.2 88 -26 -26 1026.0 1024.1
15 12.11 З 8-10
{16}
20 км позёмок {метель} 3/0
[Ac trans]
-14.3 -15.7 89 -25 -25 1028.1 1026.2
18 12.11 З 8-11
{12}
20 км позёмок {метель} 10/0
[As trans]
-13.5 -15.5 85 -24 -24 1030.7 1028.8
21 12.11 З 6-7
{11}
20 км позёмок {метель} 10/0
[Ac trans Ci fib]
-14.0 -15.4 89 -23 -23 1032.2 1030.3 -14.5 3
00 13.11 З 2-3
{7}
20 км {метель} 10/0
[Ac trans Ci fib]
-14.4 -16.1 87 -19 -19 1032.3 1030.4 -14.6
03 13.11 В 3-4
{5}
20 км 6/0
[Ac trans Ci fib]
-17.4 -18.6 90 -24 -24 1032.3 1030.4
06 13.11 В 4-5
{5}
20 км 3/0
[Ac trans]
-17.9 -19.1 90 -26 -26 1031.3 1029.4
09 13.11 В 3-4
{5}
20 км 3/0
[Ac trans]
-16.6 -17.9 90 -24 -24 1030.7 1028.8 -13.9
12 13.11 В 6-7
{7}
20 км позёмок {метель} 9/0
[Ac trans]
-12.8 -14.1 90 -22 -22 1028.9 1027.0
15 13.11 В 6-7
{8}
4000 м слабый снег {метель} 10/0
[As op]
-11.3 -12.6 90 -20 -20 1026.8 1025.0
18 13.11 В 4-5
{8}
10 км {снег, метель} 10/0
[As op]
-10.8 -12.1 90 -18 -18 1024.0 1022.2
21 13.11 В 4-5
{6}
4000 м слабый снег 10/0
[As op]
-9.2 -10.3 92 -16 -16 1021.4 1019.6 -16.7 0.5 3
00 14.11 В 6-9
{11}
4000 м слабый снег {метель} 10/8 200 м
[Frnb As op]
-7.2 -8.1 93 -15 -15 1018.0 1016.2
03 14.11 В 8-10
{11}
4000 м слабый снег {метель} 10/8 200 м
[Frnb As op]
-5.5 -6.6 92 -15 -15 1014.8 1013.0
06 14.11 В 6-9
{11}
20 км позёмок {снег, метель} 10/6 330 м
[St As op]
-4.7 -6.0 91 -13 -13 1011.9 1010.1
09 14.11 В 6-9
{10}
4000 м слабый снег {метель} 10/8 300 м
[Frnb As op]
-4.5 -5.4 93 -12 -12 1009.3 1007.5 -4.5 1
12 14.11 В 6-10
{10}
4000 м слабый снег {метель} 10/8 300 м
[Frnb As op]
-3.9 -4.7 94 -12 -12 1007.3 1005.5
15 14.11 В 5-7
{10}
4000 м слабый снег {метель} 10/8 300 м
[Frnb As op]
-3.9 -4.7 94 -11 -11 1004.7 1003.0
18 14.11 В 6-7
{9}
4000 м слабый снег {метель} 10/8 300 м
[Frnb As op]
-3.8 -4.6 94 -11 -11 1002.2 1000.5
21 14.11 В 6-7
{8}
4000 м слабый снег {метель} 10/8 300 м
[Frnb As op]
-3.5 -4.3 94 -11 -11 999.6 997.9 -4.5 1 7
00 15.11 В 5-7
{9}
4000 м слабый снег {метель} 10/8 300 м
[Frnb As op]
-2.2 -3.1 94 -9 -9 996.7 995.0
03 15.11 В 5-7
{8}
4000 м слабый снег {метель} 10/8 300 м
[Frnb As op]
-1.5 -2.3 94 -8 -8 994.1 992.4
06 15.11 ЮЗ 7-9
{9}
4000 м слабый снег {метель} 10/8 300 м
[Frnb As op]
-3.7 -4.5 94 -12 -12 994.0 992.3
09 15.11 З 14-17
{20}
1000 м сильный снег {метель} 10/8 300 м
[Frnb As op]
-7.7 -8.7 93 -19 -19 997.2 995.4 +0.1 2
12 15.11 З 10-13
{18}
20 км позёмок {снег, метель} 6/4 300 м
[St Ac trans]
-8.4 -9.9 89 -19 -19 1000.2 998.4
15 15.11 З 12-15
{15}
20 км позёмок {метель} 6/4 300 м
[St Ac trans]
-9.7 -11.4 87 -21 -21 1002.5 1000.7
18 15.11 З 11-14
{17}
20 км позёмок {метель} 6/4 300 м
[St Ac trans]
-10.2 -11.5 90 -21 -21 1003.9 1002.1
21 15.11 З 9-12
{15}
20 км позёмок {метель} 9/5 300 м
[St Ac trans]
-10.3 -11.5 91 -21 -21 1005.2 1003.4 -10.4 0.4 6
00 16.11 З 8-10
{12}
10 км позёмок {метель} 10/10 240 м
[St]
-10.5 -11.8 90 -20 -20 1006.4 1004.6 -10.5
03 16.11 З 9-11
{13}
20 км позёмок {метель} 8/0
[Ac trans]
-11.7 -14.0 83 -22 -22 1006.8 1005.0
06 16.11 З 6-8
{11}
20 км позёмок {метель} 10/0
[Ac und]
-11.7 -13.9 84 -20 -20 1006.8 1005.0
09 16.11 З 4-5
{8}
20 км {метель} 4/0
[Ac trans]
-13.8 -15.5 87 -21 -21 1006.8 1005.0 -10.2
12 16.11 З 7-9
{10}
20 км позёмок {метель} 10/0
[Ac und]
-13.5 -15.4 86 -23 -23 1007.8 1006.0
15 16.11 З 6-7
{10}
20 км позёмок {метель} 9/0
[Ac trans]
-14.5 -15.8 90 -24 -24 1009.1 1007.3
18 16.11 З 6-7
{8}
20 км позёмок {метель} 10/0
[Ac und]
-13.1 -14.4 90 -22 -22 1010.8 1009.0
21 16.11 З 10-12
{13}
20 км позёмок {метель} 10/0
[Ac und]
-13.3 -15.2 86 -25 -25 1013.0 1011.2 -14.9 5
00 17.11 З 10-13
{14}
20 км позёмок {метель} 10/0
[Ac und]
-13.3 -15.7 82 -25 -25 1015.3 1013.5
03 17.11 З 11-13
{13}
20 км позёмок {метель} 10/0
[Ac und]
-12.6 -15.4 80 -24 -24 1017.1 1015.2
06 17.11 З 6-8
{13}
20 км позёмок {метель} 4/0
[Ac trans]
-14.9 -17.6 80 -24 -24 1018.6 1016.7
09 17.11 ЮЗ 4-5
{8}
20 км {метель} ясно -16.0 -18.5 81 -24 -24 1020.4 1018.5 -12.4
12 17.11 Ю 4-5
{6}
20 км {метель} ясно -20.3 -22.2 85 -29 -29 1021.2 1019.3
15 17.11 ЮВ 6-7
{8}
20 км позёмок {метель} ясно -20.3 -21.9 87 -31 -31 опасность
обморожения
1021.2 1019.3
18 17.11 В 5-6
{8}
20 км позёмок {метель} ясно -19.9 -21.6 86 -30 -30 1019.6 1017.7

 

Местоположение метеостанции Айон Остров (Чукотка, Россия): широта 69.93 долгота 167.90 высота над уровнем моря 14 м.

В архиве по умолчанию представлена погода на Айон Острове за последнюю неделю. Архивные данные за месяц целиком и за предыдущие месяцы, начиная с января 2011 года, Вы можете получить, выбрав интересующий диапазон дат из раскрывающегося списка и нажав кнопку "Ввод!".

Внимание! Время в таблицах - всемирное. Для получения местного времени необходимо прибавить поправку, которая на Айон Острове равна 12 ч.

Смотрите также архив погоды в соседних городах и на ближайших метеорологических станциях:

Погода в Раучуе (Чукотка, Россия) (72 км)
Погода в Певеке (Чукотка, Россия) (92 км)
Погода в Валькаркае (Чукотка, Россия) (115 км)
Погода в 21 км (Чукотка, Россия) (117 км)
Погода в Чауне (Чукотка, Россия) (160 км)
Погода в Комсомольской (Чукотка, Россия) (211 км)
Погода в Билибино (Чукотка, Россия) (217 км)
Погода в Бухте Амбарчик (Чукотка, Россия) (218 км)
Погода на Островном (Чукотка, Россия) (252 км)
Погода в Паляваам-Глубокой (Чукотка, Россия) (257 км)

Пояснения к столбцам:

Ветер - указаны скорость ветра в м/с - средняя за 10 мин, порывы в срок и между сроками (в фигурных скобках) и направление, откуда дует ветер: С - северный, СВ - северо-восточный, В - восточный, ЮВ - юго-восточный, Ю - южный, ЮЗ - юго-западный, З - западный, СЗ - северо-западный.
Видимость - горизонтальная дальность видимости в метрах или километрах. При видимости от 1 до 10 км при отсутствии осадков обычно наблюдается дымка, при ухудшении видимости до 1 км и менее - туман. В сухую погоду видимость может ухудшаться дымом, пылью или мглою.
Явления - указаны атмосферные явления, наблюдавшиеся в срок или в последний час перед сроком; фигурными скобками обозначены явления, наблюдавшиеся между сроками (за 1-3 часа до срока); квадратными скобками обозначены град или гололедные отложения с указанием их диаметра в мм.
Облачность - указаны через наклонную черту общая и нижняя облачность в баллах и высота нижней границы облаков в метрах; квадратными скобками обозначены формы облаков: Ci - перистые, Cs - перисто-слоистые, Cc - перисто-кучевые, Ac - высококучевые, As - высокослоистые, Sc - слоисто-кучевые, Ns - слоисто-дождевые, Cu - кучевые, Cb - кучево-дождевые. Подробнее классификацию облаков см. в Атласе облаков (PDF).
T - Температура воздуха - температура, измеренная на высоте 2 м над землей.
Td - Температура точки росы - температура, при понижении до которой содержащийся в воздухе водяной пар достигнет насыщения.
f - Относительная влажность воздуха - влажноcть воздуха, измеренная на высоте 2 м над землей.
Te - Эффективная температура - температура, которую ощущает одетый по сезону человек в тени. Характеристика душности погоды. При расчете учитывается влияние влажности воздуха и скорости ветра на теплоощущения человека.
Tes - Эффективная температура на солнце - температура, которую ощущает человек, с поправкой на солнечный нагрев. Характеристика знойности погоды. Зависит от высоты солнца над горизонтом, облачности и скорости ветра. Ночью, в пасмурную погоду, а также при ветре 12 м/с и более поправка равна нулю.
P - Атмосферное давление - приведенное к уровню моря атмосферное давление.
Po - Атмосферное давление - измеренное на уровне метеостанции атмосферное давление.
Tmin - Минимальная температура - минимум температуры воздуха на высоте 2 м над землей.
Tmax - Максимальная температура - максимум температуры воздуха на высоте 2 м над землей.
R - Количество осадков - Количество выпавших осадков за период времени, мм. При наведении курсора мыши на число - период времени, за который выпало указанное количество осадков.
R24 - Количество осадков - Количество выпавших осадков за 24 часа, мм.
S - Снежный покров - Высота снежного покрова, см. При наведении курсора мыши на число - состояние снежного покрова и степень покрытия местности в баллах.